Volver al catálogo

HOTSAT-2

ActivoCienciaSSO
NORAD 68465·PAYLOAD·🇬🇧 United Kingdom

Lanzado Mar 30, 2026 desde Vandenberg Space Force Base

Loading…

Próximos Pases (próximas 24 horas)

TLE

ActualizadoSource: Space-Track

Época: Sep 13, 2026, 20:21 UTC

1 68465U 26067BB  26256.84841567  .00002385  00000-0  12065-3 0  9999
2 68465  97.4629 213.8949 0004925 111.9845 248.1912 15.17985649 25383

Sigue HOTSAT-2 en tiempo real con AllMySat

Download on the App Store